Regional Weather Roundup
Issued by NWS Boston, MA

Home | Current Version | Previous Version | Text Only | Print | Product List | Glossary On
Versions: 1 2 3 4 5 6 7 8 9 10 11 12 13 14 15 16 17 18 19 20 21 22 23 24 25 26 27
000
ASUS41 KBOX 270310
RWRBOX

REGIONAL WEATHER ROUNDUP
NATIONAL WEATHER SERVICE TAUNTON MA
1100 PM EDT THU MAY 26 2016

NOTE:  "FAIR" INDICATES FEW OR NO CLOUDS BELOW 12,000 FEET WITH NO
SIGNIFICANT WEATHER AND/OR OBSTRUCTIONS TO VISIBILITY.  THE FOLLOWING
OBSERVATION LOCATIONS DO NOT REPORT PRESENT WEATHER...PROVINCETOWN...
SMITHFIELD...BLOCK ISLAND...KEENE...AND OXFORD.

MAZALL-270400-
EASTERN MASSACHUSETTS

CITY           SKY/WX    TMP DP  RH WIND       PRES   REMARKS
BOSTON         MOCLDY    60  55  83 CALM      30.09R
BEVERLY        PTCLDY    60  53  77 SE10G17   30.10R
LAWRENCE       PTCLDY    64  54  69 SE5       30.11S
BEDFORD        MOCLDY    61  55  81 NE5       30.08R
BLUE HILL        N/A     68  55  63 S8        30.09R
NORWOOD        CLOUDY    65  57  75 MISG      30.08R
MARSHFIELD     CLOUDY    61  55  82 SE6       30.09S
PLYMOUTH       CLEAR     64  55  72 S3        30.10R
TAUNTON        PTCLDY    65  55  70 SE5       30.08R
NEW BEDFORD    PTCLDY    62  55  77 S3        30.09S
$$

MAZALL-270400-
CAPE COD AND THE ISLANDS

CITY           SKY/WX    TMP DP  RH WIND       PRES   REMARKS
FALMOUTH       CLOUDY    59  55  88 SE7       30.12S
HYANNIS        CLOUDY    59  54  83 SE6       30.12R
CHATHAM        CLOUDY    57  52  83 S6        30.15R
PROVINCETOWN   CLEAR     60  55  83 SE12      30.12R
NANTUCKET      CLEAR     56  53  90 SE7       30.13R
MARTHAS VNYRD  MOCLDY    59  56  89 S5        30.11S
$$

MAZALL-270400-
CENTRAL AND WESTERN MASSACHUSETTS

CITY           SKY/WX    TMP DP  RH WIND       PRES   REMARKS
WORCESTER      PTCLDY    72  54  53 CALM      30.11R
FITCHBURG      CLOUDY    69  57  65 E5        30.10S
ORANGE         CLOUDY    70  62  76 S3        30.07R
SPRINGFIELD    MOCLDY    73  57  56 S7        30.05R
WESTFIELD      PTCLDY    70  57  63 S5        30.05S
NORTH ADAMS    CLOUDY    70  58  65 SE5       30.06R
PITTSFIELD     CLOUDY    68  58  70 CALM      30.08R
$$

RIZALL-270400-
RHODE ISLAND

CITY           SKY/WX    TMP DP  RH WIND       PRES   REMARKS
PROVIDENCE     MOCLDY    64  56  75 CALM      30.09R
NEWPORT        CLEAR     63  54  72 S7        30.09S
BLOCK ISLAND   CLEAR     61  55  81 SW12      30.11R
SMITHFIELD     CLEAR    N/A N/A N/A S3        30.09R
WESTERLY       CLEAR     63  53  70 S3        30.10S
$$

CTZALL-270400-
CONNECTICUT

CITY           SKY/WX    TMP DP  RH WIND       PRES   REMARKS
BRADLEY INTL   PTCLDY    73  55  53 S8        30.06R
HARTFORD       CLEAR     74  54  49 S5        30.06S
BRIDGEPORT     CLEAR     70  53  54 S3        30.07R
DANBURY        CLEAR     73  49  42 S8        30.08S
GROTON         CLEAR     61  56  83 CALM      30.09R
NEW HAVEN      CLEAR     66  55  67 CALM      30.08R
CHESTER        FAIR      70  52  52 SW6       30.09S
MERIDEN        CLEAR     67  56  67 CALM      30.07S
WILLIMANTIC    CLEAR     69  56  62 CALM      30.09R
OXFORD           N/A     70  48  46 S5        30.09S
$$

MEZ002-015-021-024-NHZ003-005-008-011-012-014-VTZ005-008-270400-
NORTHERN NEW ENGLAND

CITY           SKY/WX    TMP DP  RH WIND       PRES   REMARKS
PORTLAND ME    PTCLDY    57  51  80 CALM      30.13S
BANGOR ME      PTCLDY    63  51  65 SE9       30.18R
CONCORD NH     MOCLDY    63  53  70 SE6       30.11R
MANCHESTER NH  CLOUDY    63  52  67 E6        30.09S
NASHUA NH      PTCLDY    65  56  72 E6        30.10S
PORTSMOUTH NH  MOCLDY    59  50  72 SE10      30.11R
JAFFREY NH     CLOUDY    66  57  72 CALM      30.11R
KEENE NH       CLOUDY    68  61  77 CALM      30.08R
BURLINGTON VT  MOCLDY    71  51  49 SW3       30.01F
MT. WASHINGTON MOCLDY    50  45  81 S12         N/A
$$

NYZ052-076-270400-
EASTERN NEW YORK

CITY           SKY/WX    TMP DP  RH WIND       PRES   REMARKS
ALBANY         MOCLDY    77  55  46 S8        30.02R
NEW YORK CITY  PTCLDY    73  62  68 S10       30.05S
$$

ANZALL-270400-
MARINE OBSERVATIONS

STATION/POSITION TIME  TEMP    WIND        PRES    VSBY  WAVE
                       AIR SEA DIR/SP/G                  HT/PER
                 (UTC) (F)     (DEG/KT/KT) (MB)    (MI)  (FT/S)
BOSTON BUOY      0250   58 55  120/ 16/ 17 1018.6R         3/ 4
BUZZARDS BAY     0200   60     180/  7/  7 1019.7R
NANTUCKET SOUND  0250   57 56  140/  8/ 10 1020.0R         1
MASS BAY-STELLWA 0204   57 55                N/A    1 7/8  3/ 4
ISLE OF SHOALS   0200   57     140/ 12/ 13 1019.5R
S OF BLOCK IS    0225      55                N/A           2/ 7
$$

......................KEY.........................
  SKY/WX - SKY CONDITION/PRESENT WEATHER
  TMP    - TEMPERATURE IN FAHRENHEIT
  DWPT   - DEWPOINT IN FAHRENHEIT
  RH     - RELATIVE HUMIDITY IN PERCENT
  WIND   - DIRECTION AND SPEED IN MPH
  PRES   - MEAN SEA LEVEL PRESSURE IN INCHES OF HG
  WCI    - WIND CHILL INDEX
  VSB    - VISIBILITY IN MILES
  HX     - HEAT INDEX
  TC     - TEMPERATURE IN CELSIUS
  VRB    - VARIABLE WIND DIRECTION
  N/A    - NOT AVAILABLE




USA.gov is the U.S. government's official web portal to all federal, state and local government web resources and services.